Showing default

COSMOS 2214, 22185

Orbit data source: Space-Track

COSMOS 2214, 22185 is a payload satellite owned by VKS (CIS) in LEO that was launched on Tue, 20 Oct 1992 UTC via a TSIKLON-3 launch vehicle from the Plesetsk Missile And Space Complex (PKMTR). Payload-class satellites include a variety of spacecraft equipped with specific instruments for various scientific and technological missions. These include communications satellites like Starlink; space stations such as the ISS; scientific satellites like the Hubble; Earth observation satellites from companies like Planet Labs, Umbra, and HawkEye 360; GPS; miniature CubeSats for education and research; and military/defense satellites.

Loading next visibility...
Identifier
22185, 1992-068D
Orbit
LEO
Country
Flag of CISCIS
Related business
Manufacturer
NPO PM
Mission
Defense Communications
Bus & Motor
STRELA-3, Unknown motor
Mass
225 kg wet, 225 kg dry
Launch date (UTC)
1992-10-20 (34 years ago)
Launch vehicle
TSIKLON-3
Launch site
Plesetsk Missile And Space Complex (PKMTR)
Object type
Payload
Rocket body
Debris
Shape & HBR
Cyl, 0.8 m
Radar Cross Section
1.257 m², Large (>1 m²)

Expand to show TLE details & history
Last TLE update: 17 hours ago

TLE from 17 hours ago
0 COSMOS 2214
1 22185U 92068D   26125.79859522  .00000030  00000-0  11098-3 0  9991
2 22185  82.5958  20.7431 0007631 247.5957 176.5614 12.61602831544306
Epoch: 2026-05-05T19:09Z
TLE epoch observation values (Epoch: 2026-05-05T19:09:58.627Z)
Latitude
63.27622°
Longitude
-115.5367°
Altitude
1,433.119 km
Speed
7.148 km/s
True Right ascension
02h 22m 30s
True Declination
63° 08' 59"
Sunlit
Object was in daylight at epoch
Visualization orbit readout
Latitude
Unknown
Longitude
Unknown
Altitude
Unknown
Speed
Unknown
Apparent Right ascension
Unknown
Apparent Declination
Unknown
Sunlit
N/A
Visualization observer readout
Local Sidereal Time
19:50:04
Azimuth
Unknown
Elevation
Unknown
Doppler factor
Unknown
Orbital elements
Apogee altitude
1,419.603 km
Perigee altitude
1,407.711 km
Semi-major axis
7,791.794 km
Eccentricity
0.00076
Inclination
82.5958°
RAAN
20.7431°
Arg. of periapsis
247.5957°
True anomaly
176.56664°
Mean anomaly
176.5614°
Eccentric anomaly
176.56402°
Mean motion
3.15564 °/min
Orbital period
114.08 mins
BSTAR
0.00011098
Loading maneuver chart data...
Computing Atmospheric mass density...
Loading historical data...
Loading historical data...
Loading historical data...
Loading historical data...
Loading historical data...
Loading historical data...
Loading historical data...

Documentation

Showing up to 5 results
|